Content
SEND FEEDBACK

Daily
Averages
Monthly
Summary
Canada

QUEBEC CITY, QUEBEC


Home > North America > Canada > Quebec
Elevation: 239 feet     Latitude: 46 48N     Longitude: 071 23W

WEATHER
 
SELECT A DAY
Number of Records: 195,887;   Date Range: 6/30/96 - 10/23/14
 
SHARE

PRINT THIS DATA

[ ← Previous Day ]
WEATHER ALMANAC - DECEMBER 8, 2013
[ Next Day → ]
[ °C ]   °F
Weather ElementAverageHighLow
Temperature12.2 °F21.2 °F (3:00 pm)3 °F (7:00 pm)
Dewpoint1.4 °F5 °F (2:00 pm)-4 °F (7:00 pm)
Humidity59.1 %73 % (4:00 am)33 % (1:00 pm)
Barometer30.51 in30.57 in (7:00 pm)30.38 in (1:00 am)
Wind Speed9.6 mph15 mph (2:00 am)
Wind Gust19.6 mph (12:00 pm)
Weather ElementAverage
Visibility19.8 mi
Wind DirectionSSW (205.2 °)

Weather ElementTotal
Precipitation---
Heating Degree Days52.9 (Base 65)
Averaged from 31 records on December 8, 2013
WEATHER CONDITIONS BREAKOUT
WIND DIRECTION BREAKOUT
WEATHER BY HOUR - DECEMBER 8, 2013
[ °C ]   °F
Local TimeTemperatureDewpointHumidityBarometerVisibilityWind DirectionWind SpeedGust SpeedPrecipitationEventsConditions
1:00 AM12.0 °F3.0 °F54 %30.38 inSW (230°)12.7 mph
1:00 AM12.2 °F1.4 °F62 %30.39 in15.0 miWest (260°)13.8 mphClear
2:00 AM10.4 °F1.4 °F67 %30.41 in15.0 miWest (260°)15.0 mphClear
3:00 AM10.4 °F1.4 °F67 %30.43 in15.0 miWest (270°)12.7 mphPartly Cloudy
4:00 AM10.0 °F2.0 °F56 %30.44 inSW (230°)11.5 mph
4:00 AM8.6 °F1.4 °F73 %30.44 in15.0 miWest (260°)15.0 mphPartly Cloudy
5:00 AM8.6 °F-0.4 °F67 %30.45 in15.0 miWSW (250°)13.8 mphPartly Cloudy
6:00 AM8.6 °F-0.4 °F67 %30.48 in15.0 miWSW (250°)15.0 mphPartly Cloudy
7:00 AM8.0 °F0.0 °F59 %30.51 inSW (220°)11.5 mph
7:00 AM6.8 °F-0.4 °F72 %30.51 in25.0 miWSW (250°)11.5 mphPartly Cloudy
8:00 AM6.8 °F-0.4 °F72 %30.53 in25.0 miSW (230°)9.2 mphPartly Cloudy
9:00 AM10.4 °F-0.4 °F62 %30.55 in25.0 miSW (230°)8.1 mphPartly Cloudy
10:00 AM15.0 °F2.0 °F40 %30.55 inSSW (210°)6.9 mph
10:00 AM14.0 °F1.4 °F57 %30.56 in25.0 miSW (230°)8.1 mphPartly Cloudy
11:00 AM17.6 °F3.2 °F53 %30.55 in25.0 miWSW (250°)12.7 mphPartly Cloudy
12:00 PM19.4 °F3.2 °F49 %30.53 in25.0 miWest (260°)12.7 mph19.6 mphScattered Clouds
1:00 PM20.0 °F3.0 °F33 %30.51 inSW (230°)10.4 mph
1:00 PM19.4 °F3.2 °F49 %30.52 in25.0 miWSW (250°)12.7 mphPartly Cloudy
2:00 PM19.4 °F5.0 °F54 %30.53 in25.0 miWSW (240°)12.7 mph19.6 mphScattered Clouds
3:00 PM21.2 °F5.0 °F50 %30.52 in30.0 miWSW (240°)12.7 mphScattered Clouds
4:00 PM18.0 °F2.0 °F36 %30.53 inSW (220°)4.6 mph
4:00 PM17.6 °F3.2 °F53 %30.53 in30.0 miWSW (240°)9.2 mphPartly Cloudy
5:00 PM14.0 °F1.4 °F57 %30.55 in15.0 miSW (230°)6.9 mphPartly Cloudy
6:00 PM14.0 °F1.4 °F57 %30.56 in15.0 miWSW (250°)4.6 mphPartly Cloudy
7:00 PM3.0 °F-4.0 °F60 %30.56 inWest (260°)1.2 mph
7:00 PM14.0 °F3.2 °F62 %30.57 in15.0 miWest (260°)4.6 mphClear
8:00 PM6.8 °F-0.4 °F72 %30.55 in15.0 miNorth (10°)4.6 mphClear
9:00 PM8.6 °F-0.4 °F67 %30.56 in15.0 miNNE (20°)4.6 mphPartly Cloudy
10:00 PM8.0 °F2.0 °F66 %30.56 inNorth3.5 mph
10:00 PM8.6 °F-0.4 °F67 %30.57 in15.0 miNorth (10°)8.1 mphPartly Cloudy
11:00 PM6.8 °F-0.4 °F72 %30.56 in15.0 miNorth (10°)5.8 mphPartly Cloudy
Hourly data recorded from CYQB, located miles away from Quebec City, Quebec







STORIES FROM OUR PARTNERS